GFSSGP_250_spd_081.txt.gz
Wind_Speed
39 40 38 42 56 56 56 60 72 74 70 58 58 54 63 70 69 63 63 64 61 61 59 51 49 44 41 39 37 34 33 31 28 23 23 21 21 21 19 18 18 19 18 19 20 19 19 20 21
43 39 41 38 39 54 59 69 76 78 71 59 53 52 51 68 68 62 69 67 64 64 61 57 53 50 44 41 40 39 37 35 32 28 25 23 21 20 21 20 19 18 19 20 20 20 20 19 20
43 42 41 41 42 45 62 66 71 77 75 61 48 52 51 45 58 65 71 71 69 68 63 61 58 54 51 45 43 41 39 36 33 31 27 25 23 20 21 22 23 20 19 20 20 20 22 22 21
45 46 41 37 43 47 60 68 78 80 80 78 57 51 51 46 50 64 69 71 71 68 64 63 63 58 55 52 47 44 41 38 34 33 29 26 26 24 23 24 24 24 21 20 20 22 22 24 22
48 47 44 40 48 53 57 63 72 79 80 74 59 49 47 50 49 59 68 73 77 74 71 63 64 63 58 55 52 48 44 41 39 36 34 31 29 28 26 26 27 26 25 22 23 26 25 23 24
49 50 44 43 47 56 59 65 71 77 78 73 65 54 48 48 54 54 66 72 76 79 75 69 63 66 63 60 56 52 47 44 43 40 37 36 32 30 29 29 28 28 28 29 28 28 27 26 25
55 52 48 45 53 58 61 72 71 77 78 71 67 49 47 49 51 54 62 74 67 74 73 74 69 65 67 66 61 60 54 49 48 45 40 39 37 35 33 32 32 31 32 32 32 31 31 32 29
60 57 48 53 54 61 67 69 72 72 71 68 66 57 49 48 51 54 56 65 74 58 70 69 73 68 68 69 64 63 61 55 53 52 44 41 40 39 39 37 37 35 35 36 37 36 34 35 32
65 60 54 57 57 65 71 68 68 68 68 63 61 53 47 48 50 55 62 71 78 68 68 66 72 72 67 66 65 62 62 61 58 56 51 46 44 41 41 41 41 41 41 39 40 41 42 38 36
70 65 60 61 63 68 71 69 61 66 65 62 60 55 55 45 50 61 64 73 80 81 75 74 60 62 70 72 70 66 65 63 61 58 54 51 48 45 47 44 44 45 45 44 45 41 38 37 37
74 65 66 63 68 72 71 65 63 65 62 62 62 55 56 50 57 63 66 72 79 84 78 72 70 67 69 69 67 65 63 62 64 63 60 55 52 49 46 44 47 48 47 46 45 44 42 41 38
71 72 68 69 71 71 64 64 63 64 60 62 59 52 53 51 57 63 71 72 79 78 79 74 67 74 60 68 64 64 64 62 61 61 59 58 57 52 51 49 46 49 46 44 47 47 46 45 44
74 73 70 69 71 63 64 63 64 62 59 59 59 53 52 54 59 64 70 75 73 82 73 66 66 68 67 63 67 71 67 68 69 63 56 54 57 54 54 55 53 49 46 46 50 52 52 51 50
75 72 72 69 61 62 61 64 62 55 58 58 59 55 52 56 63 66 71 80 94 75 69 66 57 51 53 70 66 64 63 60 60 63 60 58 53 54 50 51 57 58 57 53 56 54 54 52 50
74 70 66 63 61 60 62 60 52 64 53 59 60 59 57 60 65 72 74 83 83 74 65 60 57 62 79 64 70 67 63 60 59 59 56 55 56 58 53 57 62 57 54 56 62 58 57 52 49
70 63 62 61 56 59 55 54 62 54 54 62 61 61 59 63 69 72 76 78 78 77 77 76 72 80 73 80 65 64 65 66 61 62 55 54 53 54 58 58 56 54 49 59 58 56 55 53 54
62 60 57 58 57 57 54 63 56 52 54 60 60 61 60 64 68 71 71 70 78 73 76 76 69 74 79 71 59 64 63 64 69 64 60 58 55 56 55 54 55 58 60 62 61 60 57 56 56
57 56 58 57 57 58 58 59 54 55 57 59 62 62 64 67 71 75 73 71 81 81 79 79 77 79 81 64 60 56 56 64 60 63 69 65 65 65 61 61 61 61 61 62 61 60 56 51 56
57 57 60 57 56 59 61 61 62 63 65 65 65 64 66 70 76 76 70 76 89 95 90 82 83 73 77 76 76 56 50 60 61 62 62 65 67 66 58 57 65 61 61 61 63 60 58 58 62
54 57 58 59 59 60 61 61 64 66 66 65 65 65 69 76 83 86 78 77 78 87 87 82 79 74 76 75 71 64 55 59 61 59 52 54 58 60 63 63 60 61 61 57 60 61 63 66 70
54 57 59 57 54 50 47 47 49 55 60 63 63 70 76 88 97 93 87 92 86 81 84 84 82 80 83 82 77 70 66 66 72 72 65 60 61 56 65 66 63 61 62 62 63 66 69 73 75
52 46 40 37 35 35 38 39 43 46 51 54 64 71 80 92 98 103 105 104 89 88 93 93 89 85 86 84 80 78 74 78 78 77 72 67 69 72 71 69 66 65 66 67 67 67 72 76 72
30 29 29 28 28 28 30 34 38 42 48 55 64 70 80 98 112 107 106 98 95 107 110 98 102 95 96 84 81 79 83 83 80 75 74 76 75 76 77 75 72 70 71 70 70 70 66 62 64
22 20 18 19 20 23 26 29 32 40 46 48 59 66 82 102 103 98 95 98 98 110 104 107 98 98 98 96 90 82 83 82 81 83 79 79 80 80 79 78 78 76 73 71 68 68 59 56 64
14 14 14 14 15 19 22 26 31 39 45 53 62 75 90 101 100 100 100 104 98 115 108 112 108 108 105 107 97 103 92 89 91 86 79 79 81 85 86 85 85 80 78 82 81 75 65 67 72
13 12 11 14 13 14 18 23 29 38 49 63 75 81 97 104 106 98 99 99 107 104 106 103 104 107 102 99 92 96 100 97 88 91 80 81 83 90 90 88 89 86 85 88 88 85 87 82 81
17 15 15 15 14 15 19 30 41 49 61 72 79 94 96 104 108 96 100 98 105 107 90 105 109 107 100 99 90 91 98 96 87 84 87 90 86 88 89 87 87 87 85 87 91 86 83 81 79
16 16 15 16 16 17 21 32 46 59 69 69 84 102 96 100 111 106 103 105 100 103 93 99 107 96 92 102 79 92 83 93 98 96 96 97 94 92 94 90 88 89 90 89 84 85 90 92 96
16 13 13 14 17 18 20 28 41 60 66 71 82 92 98 101 104 107 105 107 100 99 110 98 104 108 98 90 88 93 95 89 98 88 102 105 104 101 104 104 97 94 93 94 92 88 87 93 96
17 15 12 13 13 14 16 19 33 49 62 72 83 89 96 110 106 114 102 104 108 103 104 103 109 110 113 106 94 90 82 105 102 96 88 101 100 100 104 102 101 97 104 103 101 103 103 97 98

GFSSGP_250_spd_084.txt.gz
Wind_Speed
41 43 41 34 20 19 23 31 43 47 51 45 40 40 48 50 56 62 62 62 61 62 57 53 50 49 46 40 37 36 32 29 28 27 24 21 21 22 20 18 17 17 17 16 16 18 18 18 20
48 46 41 35 19 19 33 41 39 46 52 54 47 51 52 43 37 49 53 61 66 67 67 57 57 54 52 47 42 39 35 32 31 29 27 25 23 22 19 19 18 17 17 16 16 17 18 18 19
53 50 46 40 28 29 40 48 41 41 49 54 57 61 54 42 36 37 46 50 61 74 71 65 62 60 57 55 49 44 40 37 34 32 30 27 26 22 20 18 19 20 19 18 17 17 17 20 20
59 54 49 37 37 39 43 46 46 41 44 52 58 62 64 45 41 40 42 51 58 70 73 70 66 63 60 58 54 50 44 41 38 35 30 26 26 25 23 22 20 20 22 21 19 19 19 21 21
66 61 51 43 41 45 47 50 47 46 47 49 55 60 62 50 36 39 41 38 52 63 72 67 67 65 62 59 57 54 50 46 42 38 33 27 28 27 26 24 22 22 23 23 23 23 24 24 23
69 67 58 51 48 48 50 52 54 56 56 54 48 61 64 62 57 41 40 42 42 57 68 64 68 69 66 62 60 59 55 52 47 42 37 33 34 33 31 28 25 25 25 25 26 27 27 28 28
68 69 62 58 55 52 56 58 57 59 58 58 56 55 62 66 63 55 44 40 42 48 56 54 55 71 67 67 62 62 60 56 53 48 42 37 37 36 33 31 30 30 29 29 29 31 31 32 30
70 71 64 60 60 58 63 63 63 59 55 58 57 60 60 61 61 57 44 41 47 48 49 50 51 68 68 64 62 61 63 60 58 53 46 40 42 40 37 36 33 34 35 35 34 34 34 34 34
75 68 64 67 68 69 67 65 65 64 60 58 61 61 63 55 60 59 50 40 49 48 28 49 58 60 69 73 70 63 61 63 62 59 52 48 46 44 41 41 37 36 38 39 39 38 37 39 39
78 73 70 75 75 71 71 70 70 69 63 62 62 64 62 55 62 62 52 48 47 52 65 56 73 68 69 74 75 71 63 62 65 64 58 56 52 49 47 45 44 41 43 41 40 42 41 44 42
80 79 79 79 79 79 75 74 74 72 64 67 67 67 67 58 62 65 59 55 51 61 67 85 93 80 68 67 69 71 69 66 65 65 60 55 53 51 51 48 46 46 47 46 43 43 45 45 43
83 83 81 82 83 81 79 79 74 76 67 74 70 67 67 60 61 65 59 54 56 66 77 84 77 79 78 70 64 66 68 69 64 63 60 55 57 55 54 55 55 50 50 49 48 45 45 42 41
86 85 85 83 83 84 83 80 76 73 74 76 72 70 69 62 63 68 62 56 59 69 78 71 69 69 76 68 65 55 59 68 70 68 63 61 59 54 53 56 54 54 52 53 49 51 51 49 49
89 89 87 86 84 86 84 81 79 74 82 76 74 71 63 61 65 66 65 59 60 71 75 80 80 77 73 64 55 61 62 62 63 66 63 62 61 59 60 59 51 49 51 50 47 52 56 54 55
87 86 89 92 90 85 85 77 74 77 81 72 72 65 61 62 65 68 64 59 64 69 80 79 84 81 75 76 75 65 76 71 63 65 65 65 60 61 60 62 62 60 57 56 53 60 59 57 60
89 92 90 89 88 86 81 71 73 78 73 70 70 58 58 61 66 66 58 58 64 70 76 84 92 84 79 72 74 70 66 66 68 61 63 65 64 58 56 56 56 61 57 58 56 60 60 56 60
93 89 83 82 82 81 75 71 74 71 70 68 60 55 57 60 62 64 55 59 64 70 78 84 90 94 82 76 74 78 74 59 57 63 63 55 56 52 54 53 56 53 54 59 60 60 58 58 56
81 76 75 72 71 67 63 63 67 67 61 58 55 52 57 60 61 59 55 59 65 70 75 80 86 79 78 81 75 71 71 72 63 59 59 63 61 57 60 59 54 54 56 58 58 59 56 61 61
69 66 68 64 61 58 59 60 62 62 58 58 53 53 56 58 64 57 58 64 67 74 77 78 80 83 68 73 71 73 76 74 62 66 63 61 64 65 57 60 61 62 64 60 63 63 61 63 61
56 59 59 58 55 55 57 59 57 59 60 56 52 58 57 63 64 63 65 69 72 76 78 78 78 71 70 66 70 70 77 71 62 67 68 61 62 57 61 66 63 67 67 67 66 68 64 64 60
50 54 55 54 54 53 53 55 58 58 58 59 59 60 62 65 66 69 71 76 78 81 76 70 83 88 75 79 76 81 81 77 70 68 62 59 64 65 67 65 65 64 65 67 66 60 62 65 63
48 49 51 51 51 55 58 60 60 61 62 62 63 62 63 64 68 71 75 76 80 84 87 92 84 89 90 88 81 82 79 77 79 75 63 66 66 63 61 61 61 57 63 65 67 67 68 66 65
46 48 52 55 55 52 49 48 48 49 50 52 53 57 61 66 68 73 77 79 83 86 89 88 87 88 89 84 85 85 83 81 86 82 82 78 75 72 70 70 68 66 64 68 72 73 73 74 70
44 44 41 39 36 35 33 33 34 38 42 45 47 51 56 60 72 71 76 85 90 95 95 95 96 86 91 90 87 93 82 83 87 83 87 87 87 78 72 77 78 74 75 72 70 69 71 72 74
28 27 27 25 24 23 23 25 26 28 32 37 41 50 59 65 71 72 83 97 94 98 92 88 88 85 93 96 90 94 83 86 92 96 93 91 87 82 79 79 79 81 81 80 75 72 74 75 76
17 17 17 17 18 19 19 23 24 25 27 33 43 55 70 71 72 72 78 87 93 94 88 81 83 99 106 107 102 102 97 90 96 98 102 98 91 85 87 85 88 83 83 79 75 82 85 83 85
16 16 17 16 17 15 16 18 24 29 35 41 52 72 83 83 75 70 79 80 85 88 86 84 92 101 101 100 95 101 97 99 98 98 100 98 93 88 89 90 92 90 89 91 93 87 86 87 87
13 13 14 15 18 17 18 23 27 32 44 51 69 89 81 83 83 67 73 83 87 89 93 93 100 103 98 101 101 99 102 104 102 102 98 96 95 92 90 93 93 90 86 89 93 90 87 91 95
16 13 16 14 17 18 19 26 31 39 48 58 69 87 87 82 76 73 73 81 76 83 94 104 97 99 101 99 93 101 108 106 107 106 104 104 107 106 105 105 106 110 107 109 107 95 90 91 92
19 19 17 15 15 15 16 25 34 41 54 56 63 83 89 80 81 74 72 81 80 77 85 94 102 103 110 105 107 103 103 100 101 109 110 111 110 113 107 104 101 98 99 94 97 100 99 97 97

GFSSGP_250_spd_087.txt.gz
Wind_Speed
44 41 41 36 34 25 17 32 36 38 34 35 33 36 37 33 38 45 53 54 62 63 60 57 54 50 47 44 42 39 35 32 29 26 25 22 20 21 21 20 20 19 17 15 15 15 15 16 17
53 48 46 41 35 27 29 43 44 45 39 36 37 34 38 38 39 35 36 43 60 64 66 64 57 59 53 50 47 44 39 35 33 28 26 24 22 21 22 21 20 20 19 16 16 16 15 16 17
56 54 54 47 40 32 40 47 45 43 43 38 38 38 31 34 37 40 32 33 49 58 67 69 66 60 61 55 51 48 45 40 36 32 29 27 25 25 23 24 21 18 18 18 16 16 16 17 18
61 60 59 52 47 48 47 53 46 43 43 42 42 39 37 39 46 35 33 34 35 48 59 69 69 64 63 58 54 52 51 47 42 37 34 30 28 26 25 25 24 21 18 19 20 20 18 20 21
67 63 60 55 55 55 54 55 54 47 48 53 46 39 39 41 42 39 34 33 35 39 50 55 71 66 65 67 61 58 56 54 49 44 38 35 32 29 26 26 25 23 21 21 21 21 22 23 24
72 72 66 60 59 59 59 63 59 54 54 55 52 46 42 43 42 47 44 39 40 37 44 57 65 68 66 70 69 63 60 59 56 51 45 38 34 34 29 28 28 27 25 24 24 25 24 27 27
79 76 70 67 63 62 66 69 66 62 58 57 56 52 49 48 48 48 48 42 32 31 42 48 61 64 54 61 65 68 65 61 58 55 50 44 37 38 35 32 32 31 30 29 28 28 29 30 30
85 80 76 72 73 68 73 73 70 65 62 62 59 54 51 48 46 51 49 53 54 43 46 45 55 61 61 58 57 65 68 65 61 58 54 49 44 43 39 36 34 33 33 32 32 33 34 35 34
90 84 79 79 77 76 77 76 75 72 65 65 63 60 55 51 50 51 53 54 57 49 53 52 51 58 69 59 60 61 65 67 64 59 57 54 49 49 43 40 38 36 36 36 36 38 38 39 39
93 88 83 87 84 79 79 77 77 76 73 69 70 66 61 58 55 55 54 59 59 58 49 43 51 58 59 60 58 63 61 67 66 64 58 57 54 53 49 45 45 43 40 40 41 42 43 41 41
97 91 89 87 87 86 82 79 79 79 76 73 74 73 68 63 60 60 57 63 61 61 56 47 49 60 52 62 63 61 62 64 62 63 58 56 57 56 56 54 51 49 45 44 46 45 45 47 45
95 93 88 87 88 87 83 81 81 79 79 83 79 80 76 70 69 64 61 67 66 67 56 40 49 60 57 63 59 62 60 64 63 63 59 55 55 60 60 60 55 52 49 47 47 50 51 50 48
96 92 89 89 89 90 87 83 81 80 82 86 84 83 80 77 74 68 67 71 73 69 56 38 56 61 62 58 57 62 57 57 63 67 69 64 60 59 62 62 58 53 52 52 51 51 54 52 49
98 92 89 88 90 91 88 85 81 81 87 86 88 85 82 81 81 75 73 75 76 69 64 43 66 68 54 57 59 65 62 59 62 66 68 68 67 66 62 62 60 56 53 52 48 46 48 49 50
98 94 89 92 91 90 91 86 88 88 91 86 87 84 85 83 82 79 78 78 77 73 67 55 66 77 70 67 69 67 62 69 65 62 61 62 65 70 64 59 61 61 60 59 62 58 58 55 58
92 92 94 93 91 92 90 90 92 88 84 84 84 82 84 82 81 82 80 82 78 75 68 64 61 89 83 70 65 70 73 74 71 70 66 58 62 62 65 67 69 64 65 66 59 58 59 55 58
88 86 93 96 94 91 84 86 87 86 82 83 86 83 85 84 84 81 80 79 74 72 70 68 64 84 96 87 75 66 66 60 72 67 63 58 59 61 61 64 65 65 63 59 55 56 60 55 57
81 81 87 90 89 83 79 77 77 79 79 81 81 85 83 80 76 75 75 74 69 72 71 65 64 74 85 95 83 73 76 68 74 61 68 65 61 63 61 57 61 62 64 62 60 54 55 55 59
72 75 76 77 73 73 70 68 65 71 74 74 75 77 77 75 73 71 72 70 66 67 66 64 63 71 87 92 85 80 81 75 75 75 72 66 63 62 62 63 59 60 57 61 60 55 59 61 60
63 69 69 66 63 59 60 62 63 64 66 70 70 68 65 63 66 65 65 63 64 63 62 62 63 70 77 90 90 89 86 75 77 84 82 78 72 60 59 60 59 59 60 65 59 60 63 66 66
50 51 52 53 53 53 54 56 59 60 62 63 62 60 58 58 64 63 61 60 59 64 61 64 64 73 83 94 94 88 88 83 79 79 79 84 82 69 66 60 62 60 61 67 59 64 71 75 73
42 42 44 45 45 46 47 51 54 56 56 56 58 59 57 61 63 59 58 57 60 66 62 65 70 78 81 92 94 82 95 98 95 83 82 76 79 74 69 67 69 69 67 60 62 63 69 70 70
36 38 40 42 43 44 45 47 50 53 55 55 55 55 56 58 57 54 54 57 61 66 68 71 74 75 84 88 86 85 93 86 85 86 80 76 71 81 73 74 69 69 68 67 72 74 78 75 74
31 34 37 38 41 43 45 46 47 49 51 53 56 57 58 59 57 56 56 58 64 70 72 71 75 78 82 79 82 87 92 87 79 82 81 79 80 79 82 83 77 75 72 73 70 74 74 71 68
32 34 35 35 34 36 36 36 36 36 39 42 45 48 49 51 50 53 57 63 68 69 72 72 78 79 80 82 96 86 82 82 83 81 85 78 90 89 91 88 84 78 76 77 78 79 78 75 73
26 25 25 25 25 26 25 24 25 26 28 30 34 38 40 40 45 52 59 65 69 70 75 77 79 79 79 76 82 89 84 84 87 90 87 86 92 97 91 90 92 86 84 84 85 84 80 82 81
16 15 15 16 15 17 18 20 22 23 22 25 29 34 39 48 58 62 60 62 71 76 83 86 87 85 83 86 90 94 90 92 94 95 91 95 97 101 96 92 92 92 90 89 93 91 89 86 88
6 6 9 10 12 14 15 17 20 24 26 30 37 42 51 58 57 67 66 67 63 83 86 91 93 99 99 101 92 92 95 94 97 99 95 97 100 100 102 101 101 98 98 99 93 93 91 89 93
5 7 8 8 9 11 13 15 20 25 37 47 52 57 60 66 66 64 70 67 66 77 89 91 99 105 101 105 103 95 100 97 98 101 104 102 99 97 99 106 102 100 102 103 107 105 101 96 95
10 13 11 11 10 10 9 12 17 27 44 54 58 62 68 66 71 62 67 68 67 71 87 90 97 106 100 107 105 107 106 102 100 106 105 108 108 112 110 106 106 104 105 106 105 109 105 108 105

GFSSGP_250_spd_090.txt.gz
Wind_Speed
44 43 41 42 37 29 29 36 39 41 40 33 29 29 36 36 41 45 51 55 55 58 60 60 59 54 54 52 48 43 41 36 32 30 28 25 23 21 20 21 21 20 21 19 17 15 15 14 14
50 46 45 43 38 35 36 45 47 47 42 36 35 32 33 34 42 40 44 51 54 57 62 63 61 58 56 55 52 50 47 42 38 34 33 28 26 24 21 21 21 21 21 21 19 16 16 15 14
56 55 52 47 44 41 44 50 50 47 44 43 42 37 33 33 33 34 42 42 44 54 59 60 60 62 62 58 56 53 51 47 44 38 35 32 29 27 24 22 22 21 22 20 20 19 17 18 17
63 61 59 52 49 50 55 56 55 51 50 48 47 44 37 37 38 31 38 34 36 46 54 58 57 60 60 63 60 58 56 52 48 46 38 34 32 30 28 26 24 23 22 22 20 21 20 20 20
70 69 66 58 55 54 59 62 60 56 54 55 49 49 43 40 39 38 38 38 31 41 51 54 58 57 63 64 66 65 61 61 55 52 45 40 36 33 32 28 27 26 25 25 23 23 22 21 22
75 70 69 69 63 63 62 68 65 61 61 61 57 54 49 48 46 44 43 41 40 34 40 42 52 56 61 65 65 68 67 63 59 55 51 47 42 38 36 33 30 29 28 27 26 25 25 25 25
87 82 79 77 76 73 74 73 67 64 65 67 62 58 56 54 50 48 49 42 44 43 36 38 46 48 59 61 62 67 67 66 64 58 56 53 48 44 42 38 35 32 31 31 30 29 29 28 29
88 89 86 84 83 78 80 74 72 70 67 70 67 63 59 56 53 54 53 49 48 49 48 41 44 53 57 61 59 57 66 65 66 67 60 59 56 52 50 43 40 38 34 34 33 33 34 32 32
98 93 90 89 89 84 86 80 77 74 73 75 72 68 66 63 58 56 55 55 54 54 55 37 43 48 57 64 63 59 58 64 68 70 67 62 60 57 55 52 45 42 40 37 36 35 35 35 36
101 100 99 96 93 90 90 86 85 79 77 80 78 75 70 67 62 61 57 62 59 61 59 50 51 48 61 60 63 67 67 64 64 68 71 67 63 59 58 56 52 47 45 42 40 36 36 37 38
99 100 103 98 100 99 97 93 90 86 80 83 83 78 75 73 70 67 64 67 67 67 66 55 53 57 61 60 59 62 65 68 66 65 68 68 66 60 61 59 57 55 51 47 46 44 41 39 41
101 99 99 101 100 99 99 93 91 88 85 85 85 87 80 76 73 74 69 68 70 70 68 65 61 60 61 67 62 61 62 66 70 64 63 65 64 63 61 62 62 59 56 53 51 50 47 45 44
104 103 99 98 99 97 94 93 93 88 89 87 86 89 88 80 77 77 74 73 72 76 75 70 66 60 58 59 58 61 65 63 70 69 66 63 65 64 66 63 62 64 61 58 56 55 52 49 48
107 106 105 101 98 93 91 89 86 91 96 92 90 88 92 86 78 77 78 76 76 79 80 75 72 68 66 66 62 66 69 65 69 66 62 62 58 67 64 72 64 62 63 61 60 58 55 53 51
102 105 105 105 100 92 87 85 91 93 90 89 90 90 89 89 81 80 81 81 81 82 81 78 75 73 71 68 70 60 72 64 69 63 58 66 65 69 69 66 62 61 60 59 59 60 59 58 56
90 91 98 103 99 92 83 84 90 91 89 89 89 91 88 87 84 84 83 83 85 84 81 82 80 78 76 74 67 59 65 70 66 68 68 69 67 68 66 67 70 69 65 65 60 58 59 61 62
78 84 93 94 90 87 83 85 88 88 89 90 91 89 85 84 81 84 82 84 83 83 84 82 82 80 81 75 70 64 69 69 68 67 64 61 61 65 67 70 70 66 66 66 65 65 66 66 66
73 77 84 84 81 81 78 77 78 78 84 90 91 88 84 82 83 85 89 86 86 88 84 82 83 83 79 75 73 63 77 78 65 68 60 64 58 64 67 65 61 58 55 61 65 64 66 69 68
71 73 76 75 74 76 70 68 68 72 77 84 87 86 85 85 84 84 86 87 88 88 85 83 85 83 79 73 72 65 74 81 71 66 62 71 58 56 69 68 65 60 55 60 61 59 61 66 66
65 68 68 69 68 68 65 65 66 66 65 72 79 82 81 83 84 83 85 86 87 85 84 84 86 80 77 72 74 66 72 72 71 70 56 68 71 65 61 69 64 67 58 61 62 62 60 59 57
57 61 62 58 55 53 53 53 54 54 57 61 64 69 73 78 79 81 83 84 83 84 81 80 79 75 69 71 66 61 67 67 68 66 65 67 69 71 69 71 66 68 62 63 60 63 64 64 60
45 45 46 45 46 46 44 46 48 50 52 56 59 62 64 64 67 70 73 73 75 72 66 70 70 68 62 64 61 60 62 74 86 85 83 73 76 71 77 82 77 74 68 69 66 62 59 63 68
35 35 38 39 40 39 38 42 44 47 49 49 51 54 56 57 62 62 63 63 59 54 58 60 59 56 63 62 61 63 65 71 77 84 76 79 83 79 86 85 85 80 82 76 76 71 68 71 71
26 27 28 30 31 31 32 34 35 37 38 41 45 49 50 51 52 52 54 50 47 49 55 58 59 58 61 60 62 66 67 73 82 82 82 89 80 82 91 81 83 83 85 83 89 89 80 77 78
18 20 22 25 27 29 31 32 34 36 39 42 45 47 49 51 52 53 53 53 54 56 57 60 58 58 60 62 61 61 67 74 83 91 87 90 92 89 87 87 84 81 82 81 83 82 81 80 82
15 18 20 22 22 24 25 26 28 31 35 40 42 44 48 52 53 55 55 56 57 59 59 61 61 60 62 64 62 71 78 92 86 91 80 91 89 96 89 90 92 88 80 80 81 83 83 78 84
11 13 14 14 15 16 17 21 23 24 25 26 26 31 37 41 44 46 48 51 55 57 59 61 63 63 62 66 71 76 79 90 97 95 96 91 102 90 95 98 94 84 82 92 93 97 91 88 88
5 5 5 6 5 8 10 11 13 16 19 20 23 28 31 35 36 39 42 47 50 53 58 56 54 57 60 68 74 86 91 95 92 90 96 97 100 100 99 94 101 97 98 102 106 100 101 97 98
5 2 2 1 2 1 3 6 10 14 18 20 25 28 35 38 43 44 46 50 53 53 50 56 54 58 60 70 83 94 94 95 94 92 95 96 96 100 105 103 103 103 103 105 103 106 105 95 98
10 8 8 7 8 9 4 7 11 15 16 20 25 34 41 42 47 49 47 53 56 57 57 55 62 56 66 75 83 94 96 93 94 97 97 93 94 99 102 101 102 103 108 110 113 117 111 109 105

GFSSGP_250_spd_093.txt.gz
Wind_Speed
41 41 39 38 36 32 32 38 42 44 38 34 33 31 31 38 42 47 54 55 56 56 59 60 61 56 54 53 51 49 45 38 36 34 30 30 28 26 25 24 22 22 22 21 20 20 19 17 16
50 46 43 41 40 39 41 47 47 46 41 38 33 33 32 30 35 41 46 48 53 55 56 55 55 54 54 54 54 53 52 47 44 40 37 33 32 29 28 26 24 24 23 23 22 22 21 19 16
59 55 50 48 43 45 47 52 53 50 48 45 42 40 35 36 31 37 41 41 44 48 53 55 56 54 54 56 59 57 55 52 48 45 42 39 35 33 30 29 27 25 24 24 24 22 22 21 19
65 62 59 53 51 52 55 58 58 55 50 45 44 41 39 36 38 35 37 32 42 45 49 51 54 57 56 53 58 59 58 55 53 51 48 45 40 37 34 32 29 27 26 26 25 24 22 23 22
73 70 67 61 60 60 62 63 63 62 56 52 47 45 43 42 41 39 38 38 37 40 48 47 49 52 59 59 56 60 62 61 56 55 52 49 45 41 38 35 32 31 30 28 28 28 26 25 23
77 75 76 68 71 70 68 68 65 64 61 58 53 51 50 49 46 45 45 44 37 33 41 38 46 51 52 57 62 57 60 63 63 60 58 54 51 46 44 38 36 35 33 32 30 30 29 28 26
81 79 76 75 80 81 79 73 69 67 66 62 61 59 57 55 52 53 52 50 49 36 37 45 39 43 55 52 54 58 62 61 64 64 63 60 57 54 51 46 42 39 37 34 34 32 32 31 30
86 84 80 80 82 77 83 82 74 72 72 71 67 63 62 62 58 59 57 56 55 46 40 41 41 35 42 51 56 58 57 60 64 68 68 68 63 60 57 54 48 45 41 40 37 36 36 36 35
95 90 89 88 88 89 88 86 86 77 77 81 75 71 66 67 64 62 62 60 60 58 55 53 47 42 45 48 58 59 61 60 64 67 70 69 67 63 62 60 56 52 47 43 42 40 39 39 38
98 96 96 96 93 92 94 94 91 88 84 87 85 79 72 71 69 67 66 65 64 64 62 63 53 53 49 43 58 60 64 65 65 62 62 65 67 67 65 63 62 59 54 51 47 46 44 41 42
105 101 99 98 98 98 99 99 99 92 91 92 91 87 82 76 72 71 72 69 69 69 68 66 64 59 51 45 54 61 61 66 67 65 61 62 67 69 69 68 66 64 62 58 54 50 47 47 46
113 108 105 105 100 101 103 102 103 99 98 97 95 90 87 84 79 74 73 73 72 72 71 69 68 67 62 57 54 57 57 61 67 73 76 63 62 70 72 73 71 68 66 63 61 57 52 51 50
110 108 106 103 105 101 101 101 99 99 100 104 101 96 90 86 84 81 75 74 74 75 75 74 73 73 71 67 65 60 55 58 64 69 64 70 72 70 70 75 76 73 69 65 64 62 59 55 54
103 108 108 106 107 103 100 100 97 98 105 98 97 96 93 87 85 83 81 77 74 75 77 80 78 76 76 74 70 65 64 55 60 63 62 68 71 74 71 71 76 75 70 66 67 68 63 60 57
90 94 100 104 102 102 102 100 99 102 97 97 93 92 86 84 85 83 83 80 77 77 79 81 83 80 78 76 73 69 69 62 58 68 67 68 72 70 74 60 74 74 62 74 60 61 63 65 63
80 82 89 96 97 100 100 101 106 103 96 94 93 91 90 86 88 84 83 81 80 80 82 81 86 84 79 76 74 73 74 70 65 62 56 63 74 69 73 74 72 72 71 70 69 71 68 68 64
78 77 77 79 86 92 94 94 107 98 91 90 93 96 92 88 85 84 81 80 79 85 84 83 87 84 80 80 79 79 77 73 70 64 57 58 72 69 71 73 74 65 66 67 71 66 66 65 61
73 72 72 73 80 82 88 83 96 90 84 89 88 89 93 92 85 87 84 80 79 83 84 85 83 82 81 79 80 79 78 75 75 67 60 60 65 71 73 71 71 72 67 73 70 75 73 69 69
67 66 71 76 74 74 82 79 83 78 77 74 77 83 87 89 91 86 83 78 81 85 88 84 77 81 79 81 83 81 80 75 71 73 68 63 65 75 74 75 75 77 77 75 71 71 74 74 75
64 70 66 71 69 71 78 72 70 68 67 69 71 74 78 82 86 86 82 83 84 86 85 80 78 81 80 81 83 82 83 79 75 75 72 64 72 74 76 77 74 68 63 72 72 76 73 69 65
60 58 60 62 66 65 64 61 62 60 60 62 64 67 72 74 76 78 78 83 84 84 81 80 81 82 84 87 87 88 85 84 79 79 70 67 72 72 73 72 73 68 57 60 67 65 70 69 72
48 50 51 54 55 56 56 55 57 57 57 58 59 62 65 67 68 70 74 78 81 84 82 80 78 78 85 87 87 85 87 84 80 73 65 66 69 66 69 70 71 70 63 67 63 69 73 74 73
38 38 40 42 44 44 43 45 45 46 47 49 51 52 53 55 58 61 65 68 73 77 81 82 79 81 85 88 91 88 86 83 74 67 64 62 67 70 72 74 73 77 72 74 75 66 72 72 67
27 29 29 31 32 31 32 35 38 39 41 42 44 46 49 51 53 55 56 57 58 60 64 69 74 81 84 84 81 81 74 66 63 60 62 65 62 65 73 73 77 74 72 72 79 73 72 74 73
20 19 20 20 21 23 24 26 29 31 32 35 37 38 40 42 45 47 48 51 54 56 60 63 67 70 70 68 67 64 61 56 57 57 62 66 67 72 74 75 76 84 85 80 80 86 84 82 85
14 14 14 13 14 17 20 22 23 25 29 31 33 35 38 40 41 45 48 48 51 50 53 58 60 59 58 57 58 55 54 53 54 58 65 65 68 69 79 88 90 89 87 90 92 93 95 92 95
3 3 4 6 9 9 11 14 15 18 21 26 30 35 40 42 43 44 45 47 48 49 50 53 53 52 52 53 55 54 55 54 55 61 65 70 82 82 79 80 85 86 89 86 87 87 92 94 99
6 2 3 2 1 1 2 3 4 8 11 17 20 23 27 32 38 43 45 47 49 50 51 53 53 55 53 54 56 57 57 54 55 60 65 81 89 88 89 90 87 92 94 96 88 87 89 91 95
5 7 7 6 5 5 7 5 1 1 4 6 9 14 18 21 26 31 37 40 43 46 47 48 49 48 52 54 55 56 58 60 58 59 73 83 88 87 86 89 96 97 95 93 93 96 99 98 99
11 15 14 12 12 10 10 10 9 6 5 5 4 2 7 15 19 22 27 34 37 41 41 42 41 43 43 45 48 50 56 60 65 69 80 87 86 88 86 87 88 94 94 94 100 99 101 99 100

GFSSGP_250_spd_099.txt.gz
Wind_Speed
43 40 38 36 33 31 32 33 31 29 31 31 28 29 32 32 35 37 44 44 44 47 50 51 50 49 49 52 52 50 49 48 46 42 38 38 35 32 29 27 26 25 24 24 23 23 23 21 20
48 46 44 42 39 37 38 36 33 32 30 28 27 28 28 28 30 33 35 37 39 40 42 45 46 48 47 49 50 56 54 52 50 47 45 42 40 39 35 31 29 28 27 26 25 25 24 24 23
52 52 49 47 46 46 43 40 38 36 33 34 34 33 32 30 31 36 34 35 35 36 37 41 42 44 46 49 50 50 54 58 57 55 52 49 45 42 41 36 34 31 30 29 28 27 26 26 24
60 59 57 55 57 54 50 46 44 41 40 39 37 35 35 36 34 34 32 32 32 34 37 39 40 40 42 46 48 50 51 51 54 57 58 54 50 46 45 39 38 37 34 34 32 30 28 28 28
67 65 62 62 62 59 55 53 52 49 47 45 43 41 39 40 40 41 39 40 41 39 39 37 37 40 40 42 44 45 46 48 52 53 54 56 53 48 46 48 45 43 41 38 37 36 33 32 31
77 72 67 67 65 64 63 60 59 58 55 52 50 48 46 44 44 44 45 45 43 39 38 36 34 38 39 37 36 41 43 42 44 48 52 54 56 55 52 51 48 48 46 45 43 40 39 37 35
77 74 76 75 71 67 66 65 66 65 63 59 57 55 52 52 50 48 48 49 49 44 39 41 38 36 36 33 33 34 35 37 39 43 46 50 57 59 58 55 54 51 50 52 49 47 43 43 40
84 81 80 81 78 75 71 72 70 70 67 66 66 63 62 59 56 55 54 54 53 50 47 44 41 41 41 43 41 38 39 37 38 41 41 44 45 55 60 59 58 56 53 53 53 52 49 46 45
88 86 86 86 83 81 79 79 77 75 74 73 72 69 70 67 64 64 63 62 59 57 54 51 51 45 46 44 42 41 43 44 42 41 43 42 46 45 54 59 61 60 60 59 56 55 54 50 49
94 92 92 91 89 88 88 86 85 82 80 79 73 72 73 73 71 72 69 67 65 65 61 58 55 51 54 52 49 43 44 43 47 46 41 42 47 51 50 52 58 62 63 65 65 62 60 59 55
93 94 94 93 93 94 93 91 89 88 86 86 80 80 75 76 77 76 73 71 71 68 71 67 64 61 59 60 57 48 41 44 47 43 40 43 46 50 52 54 56 57 59 65 65 67 65 65 62
93 93 95 94 95 96 94 95 95 92 91 91 89 86 84 85 83 82 80 75 74 75 74 74 73 69 67 62 60 57 58 59 58 55 53 49 50 51 55 56 56 57 59 59 57 65 70 69 71
99 101 98 100 99 96 97 98 97 97 97 97 97 94 93 92 90 88 85 83 81 80 82 80 78 78 75 69 68 65 64 63 61 57 58 54 52 50 53 54 53 55 57 60 62 60 61 65 74
86 93 99 102 102 99 96 99 101 105 103 101 100 100 97 94 94 93 92 90 90 88 87 84 82 82 79 80 76 73 72 69 64 61 59 61 58 53 51 48 48 53 53 54 60 61 63 62 62
78 80 84 90 96 102 103 107 107 107 105 106 106 104 102 99 96 93 94 93 95 93 91 86 88 87 85 85 86 79 76 73 70 66 64 62 62 62 56 57 54 56 56 50 57 58 57 57 57
79 82 83 82 84 87 95 101 113 111 111 112 112 109 107 99 94 97 97 97 97 97 95 92 91 92 91 88 88 84 82 77 75 73 69 68 67 64 59 59 62 57 58 57 54 59 59 60 60
82 84 83 82 81 83 85 87 96 98 100 102 103 102 99 101 100 99 97 98 95 94 96 92 91 93 93 92 91 89 86 82 79 77 72 69 70 67 66 62 61 58 58 54 50 56 61 62 61
82 83 87 90 88 86 84 84 87 89 89 92 94 95 96 96 98 98 96 97 96 87 88 90 90 90 89 90 93 91 89 83 78 77 77 73 72 71 66 66 65 62 61 62 57 52 57 56 58
85 86 89 90 88 90 84 77 75 78 83 84 86 91 92 90 94 94 89 87 91 82 79 85 87 85 88 90 91 90 83 77 75 81 81 79 73 70 71 71 71 67 64 64 62 58 56 53 56
87 89 92 95 90 85 81 77 71 70 77 83 86 84 86 87 85 84 81 83 86 80 72 73 81 87 91 94 89 83 81 77 78 80 82 80 79 74 73 73 73 69 68 65 65 63 63 61 62
91 92 91 89 85 83 82 79 78 74 77 79 76 73 75 75 73 70 72 74 77 77 73 74 80 84 86 86 87 83 82 79 79 82 83 83 81 76 72 73 70 73 69 66 71 69 64 69 66
91 93 90 84 81 79 79 65 75 69 67 68 65 63 61 59 60 61 62 63 66 66 70 73 75 78 82 85 85 87 86 84 85 86 85 84 82 75 71 70 72 75 73 69 73 71 71 70 67
85 80 76 72 66 64 61 53 55 58 57 53 50 51 50 50 50 50 52 54 57 61 63 66 68 69 73 76 81 83 86 87 89 90 91 89 84 79 75 72 74 76 74 75 78 74 72 70 69
64 61 59 54 52 49 42 43 44 44 44 42 40 38 39 40 42 42 46 49 53 56 57 57 60 64 68 72 74 78 81 84 88 90 89 88 90 86 80 76 77 76 74 74 77 77 74 77 75
47 45 41 36 35 35 34 33 34 34 33 32 31 32 34 36 38 39 41 44 47 50 53 56 59 61 64 66 68 71 74 79 80 81 81 84 84 84 84 81 79 78 78 76 77 78 76 79 74
25 23 23 22 22 23 23 23 23 21 21 20 20 23 28 31 32 34 37 40 43 47 51 55 58 61 62 62 64 66 70 70 72 75 75 76 77 80 81 81 80 81 79 80 80 82 80 71 68
15 14 9 6 8 9 11 12 11 11 12 13 15 16 18 21 23 27 31 35 38 40 43 46 47 49 52 54 57 59 60 62 66 69 71 72 72 74 74 78 77 81 83 80 75 68 63 63 68
12 11 9 7 5 6 8 4 4 7 7 8 8 12 16 18 19 21 24 28 30 32 34 39 42 44 45 47 50 52 54 57 58 59 60 61 63 67 69 72 72 71 67 63 59 56 51 55 64
16 16 14 12 14 14 16 16 15 15 11 10 8 6 5 5 9 16 19 22 23 24 26 28 30 32 34 36 39 41 43 47 53 52 53 54 56 57 58 57 57 55 51 55 57 58 57 59 64
21 19 20 20 21 19 19 21 21 18 19 20 18 20 17 18 20 10 1 9 9 15 18 23 24 27 30 31 34 37 38 42 44 45 45 47 51 51 51 52 55 55 58 59 60 62 67 65 67